Orbital Elements at Epoch 2459200.5 (2020-Dec-17.0) TDB
Reference: JPL 28 (heliocentric ecliptic J2000)
Element | Value | Uncertainty (1-sigma) | Units |
e | .04963893398575125 | 2.4278e-08 | |
a | 2.267949464512103 | 6.4562e-09 | au |
q | 2.155370870760167 | 5.6882e-08 | au |
i | 5.619710786653021 | 3.7297e-06 | deg |
node | 183.4957793517334 | 2.6971e-05 | deg |
peri | 268.721260061823 | 4.8413e-05 | deg |
M | 306.597480901296 | 4.0064e-05 | deg |
tp | 2459385.557942743878 (2021-Jun-20.05794274) | 0.00013889 | TDB |
period | 1247.522785669729 3.42 | 5.327e-06 1.458e-08 | d yr |
n | .2885718835241434 | 1.2322e-09 | deg/d |
Q | 2.380528058264039 | 6.7767e-09 | au |
|
| | Orbit Determination Parameters
Additional Information
|